Regional Weather Roundup
Issued by NWS

Home | Current Version | Previous Version | Graphics & Text | Print | Product List | Glossary On
Versions: 1 2 3 4 5 6 7 8 9 10 11 12 13 14 15 16 17 18 19 20 21 22 23 24 25 26 27
000
ASUS45 KBOU 230407
RWRCO

WEATHER ROUNDUP FOR COLORADO
NATIONAL WEATHER SERVICE DENVER/BOULDER CO
1000 PM MDT WED MAR 22 2017

NOTE: "FAIR" INDICATES FEW OR NO CLOUDS BELOW 12000 FEET WITH NO
SIGNIFICANT WEATHER AND/OR OBSTRUCTIONS TO VISIBILITY.

COZ001>005-013-030-031-230500-
...NORTHWEST COLORADO...

CITY           SKY/WX    TMP DP  RH WIND       PRES   REMARKS
CRAIG          FAIR      51  31  46 W6        29.87F
HAYDEN         FAIR      48  27  43 E10       29.89S
MEEKER         FAIR      52  32  46 VRB7G17   29.87F
MOUNT WERNER   NOT AVBL
STEAMBOAT SPGS FAIR      46  29  53 SE6       29.90F
WALDEN         NOT AVBL
$$

COZ006>008-011-230500-
...WEST CENTRAL VALLEYS...

CITY           SKY/WX    TMP DP  RH WIND       PRES   REMARKS
GRAND JUNCTION FAIR      60  27  28 E6        29.76F
MONTROSE       FAIR      52  29  41 S3        29.85F
EAGLE          CLEAR     46  28  49 E12       29.91F
RIFLE          FAIR      53  35  50 SW3       29.83F
DELTA          MOCLDY    60  28  30 E5        29.81S
NUCLA          FAIR      52  23  32 E7        29.86F
$$

COZ017>023-064>068-230500-
...SOUTHWEST COLORADO...

CITY           SKY/WX    TMP DP  RH WIND       PRES   REMARKS
DURANGO        FAIR      53  20  27 SW3       29.95S
CORTEZ         FAIR      60  20  21 SW15G28   29.87F
PAGOSA SPRINGS MOCLDY    46  31  54 CALM      30.01S
TELLURIDE      CLOUDY    50  15  25 SE6       30.02F
WOLF CREEK PAS NOT AVBL
$$

COZ009-010-012-014-032>034-037-058>063-230500-
...CENTRAL COLORADO...

CITY           SKY/WX    TMP DP  RH WIND       PRES   REMARKS
ASPEN          MOCLDY    42  28  57 S6        29.93F
BUENA VISTA    FAIR      49  12  22 CALM      30.00S
COPPER MTN     FAIR      37  14  38 MISG      30.15F
BERTHOUD PASS  FAIR      32  23  69 S26G33    30.18F WCI  18
COTTONWOOD PAS FAIR      50   9  18 SW12G18   30.09F
GUNNISON       NOT AVBL
KREMMLING      FAIR      50  28  43 E7        29.94F
LEADVILLE      FAIR      41  15  35 S15G21    30.05F
MONARCH PASS   FAIR      34  14  44 SW26G32   30.28F WCI  21
SALIDA         FAIR      49  15  26 W7        30.06F
SUNLIGHT       FAIR      34  23  64 S9G17     30.07F WCI  26
WILKERSON PASS FAIR      37   5  25 SW14G26   30.16F
$$

COZ069>075-230500-
...SAN LUIS VALLEY/SANGRE DE CRISTO MOUNTAINS...

CITY           SKY/WX    TMP DP  RH WIND       PRES   REMARKS
ALAMOSA        FAIR      51  23  33 S5        29.98F
LA VETA PASS   NOT AVBL
SAGUACHE       FAIR      45  18  33 N10       30.00F
$$

COZ035-036-038>040-230500-
...NORTHERN COLORADO FRONT RANGE...

CITY           SKY/WX    TMP DP  RH WIND       PRES   REMARKS
DENVER INTL AP MOCLDY    52  33  48 S8        29.83F
DMNS CITY PARK   N/A     57  31  37 SW3G14    29.83S
AURORA         MOCLDY    58  35  42 S13       29.84F
FRONT RANGE AP NOT AVBL
ERIE MUNI ARPT FAIR      52  32  47 S3        29.82F
BOULDER MUN AP FAIR      57  34  41 W3        29.82F
CENTENNIAL     FAIR      58  31  35 S20G26    29.84F
BROOMFIELD     CLOUDY    57  32  38 SW3       29.84F
FORT COLLINS   FAIR      58  36  43 NE5       29.81F
LONGMONT       FAIR      55  34  44 CALM      29.83S
$$

COZ041-046-047-076>085-087-088-230500-
...PIKES PEAK/PALMER DIVIDE AND SOUTHERN FOOTHILLS...

CITY           SKY/WX    TMP DP  RH WIND       PRES   REMARKS
COLO. SPRINGS  FAIR      46  31  55 N7        29.93S
A. F. ACADEMY  FAIR      44  29  55 CALM      29.93F
SCHRIEVER AFB  FAIR      50  36  59 NW8       29.92F
ELLICOTT         N/A    N/A N/A N/A E14G20    29.90F
FALCON         FAIR      49  36  60 E3        29.96F
FORT CARSON    PTCLDY    51  30  44 W7        29.90F
LIMON          FAIR      49  39  68 SE10      29.90S
MONUMENT HILL  FAIR      43  34  70 S10       29.95F
TRINIDAD       FAIR      62  36  37 SE13      29.92R
$$

COZ042>045-048>051-090-091-230500-
...NORTHEAST COLORADO...

CITY           SKY/WX    TMP DP  RH WIND       PRES   REMARKS
GREELEY ARPT   FAIR      57  34  41 S8        29.79F
AKRON          FAIR      50  36  58 SE18      29.86F
BURLINGTON     FAIR      50  39  66 SE23      29.90F
WRAY           NOT AVBL
STERLING       FAIR      54  37  54 S18G31    29.84S
HOLYOKE        FAIR      50  36  57 SE15      29.91F
FORT MORGAN    FAIR      55  37  50 E13       29.85S
$$

COZ086-089-092>099-230500-
...SOUTHEAST COLORADO...

CITY           SKY/WX    TMP DP  RH WIND       PRES   REMARKS
PUEBLO         FAIR      52  31  44 W9        29.85R
LA JUNTA       FAIR      66  39  37 S9        29.83F
LAMAR          FAIR      56  42  59 E8        29.88R
SPRINGFIELD      N/A     56  45  66 S18G25    29.93F
$$




USA.gov is the U.S. government's official web portal to all federal, state and local government web resources and services.